Location: Arrington
(35.8681°N, 86.7092°W)
Time: 04:38:31
(UTC+00:00)

ATLAS 2AS CENTAUR R/B - Pass Details

Date: 23 November 2019
Orbit: 926 x 1286 km, 63.7° (Epoch: 02 December)

Event Time Altitude Azimuth Distance (km) Brightness Sun altitude
Exits shadow 11:48:23 10° 295° (WNW) 3,038 4.4 -8.8°
Maximum altitude 11:52:54 18° 256° (WSW) 2,405 4.1 -7.9°
Drops below altitude 10° 11:57:15 10° 215° (SW) 2,867 4.8 -7.1°
Sets 12:00:41 0° 197° (SSW) 3,750 5.6 -6.5°
